Flag for Qatar Weather past 2 weeks in Al-Jamiliyah, Qatar

Now
88 °F

Clear.


Feels Like: 96 °F
Forecast: 89 / 100 °F
Wind: 8 mph from West

Location: Al Udeid

Current Time: Sep 3, 2015 at 4:03:34 AM

Latest Report: Sep 3, 2015 at 2:58 AM


Visibility: N/A

Pressure: 29.58 "Hg

Humidity: 62%

Dew point: 73 °F

Historic Weather in Al-Jamiliyah — Graph

°F

Al-Jamiliyah temperature yesterday

Maximum temperature yesterday: 111 °F (at 12:58 PM)
Minimum temperature yesterday: 88 °F (at 11:58 PM)
Average temperature yesterday: 99 °F

Past Weeks' High & Low Weather Summary

 TemperatureHumidityPressure
High116 °F (Aug 25, 1:58 PM)91% (Aug 30, 5:58 AM)29.66 "Hg (Aug 30, 5:58 AM)
Low84 °F (Sep 1, 5:58 AM)10% (Aug 21, 2:58 PM)29.48 "Hg (Aug 22, 1:58 PM)
Average99 °F52%29.57 "Hg
* Reported Aug 19 2:58 AM — Sep 3 2:58 AM, Al-Jamiliyah, Weather by CustomWeather, © 2015

Note: Actual official high and low records may vary slightly from our data, if they occured in-between our weather recording intervals... More about our weather records

Advertising

Al-Jamiliyah weather history for previous 24 hours

 ConditionsComfort  
Time TempWeatherWind HumidityBarometerVisibility
2:58 AM
Thu, Sep 3
88 °FClear.8 mph62%29.58 "HgN/A
1:58 AM88 °FClear.10 mph55%29.58 "Hg5 mi
12:58 AM87 °FSunny.9 mph49%29.59 "Hg4 mi
11:58 PM
Wed, Sep 2
88 °FSunny.7 mph44%29.59 "Hg3 mi
10:58 PM90 °FSunny.8 mph38%29.59 "Hg3 mi
9:58 PM90 °FSunny.7 mph32%29.60 "Hg3 mi
8:58 PM93 °FSunny.5 mph28%29.60 "Hg3 mi
7:58 PM97 °FSunny.8 mph25%29.60 "Hg3 mi
6:58 PM100 °FSunny.13 mph20%29.58 "Hg3 mi
5:58 PM103 °FSunny.17 mph16%29.57 "Hg3 mi
4:58 PM105 °FSunny.22 mph14%29.57 "Hg2 mi
3:58 PM108 °FSunny.24 mph14%29.56 "Hg3 mi
2:58 PM109 °FSunny.25 mph14%29.56 "Hg3 mi
1:58 PM110 °FSunny.25 mph14%29.57 "Hg2 mi
12:58 PM111 °FClear.25 mph14%29.58 "Hg2 mi
11:58 AM110 °FClear.24 mph17%29.60 "Hg2 mi
10:58 AM109 °FClear.21 mph19%29.61 "Hg2 mi
9:58 AM106 °FClear.25 mph26%29.62 "Hg2 mi
8:58 AM100 °FClear.22 mph35%29.63 "Hg2 mi
7:58 AM98 °FClear.22 mph42%29.62 "Hg2 mi
6:58 AM93 °FClear.16 mph48%29.62 "Hg2 mi
5:58 AM90 °FClear.13 mph59%29.61 "Hg4 mi
4:58 AM90 °FFog.8 mph65%29.59 "Hg5 mi
Weather by CustomWeather, © 2015

See weather overviewHow to use our weather pages